This demonstration page uses our WeatherBlox Daily Observations layout. Learn more.

Left ArrowRight Arrow

Hourly Observations for August 3, 2015

Temp ( °F °C ) Dew Point ( °F °C ) Humidity (%) Winds ( mph kmh ) Pressure ( in mb ) Visibility ( mi km ) Precip ( " mm )
12:53 am 00:53 Clear 67 19.4 60 15.6 79 79 NNE 5 7 29.88 1012 10 16 0.00 0.00
1:53 am 01:53 Clear 68 20 62 16.7 81 81 NNE 5 7 29.87 1011 10 16 0.00 0.00
2:53 am 02:53 Clear 67 19.4 64 17.8 91 91 NE 6 9 29.88 1012 10 16 0.00 0.00
3:53 am 03:53 Clear 67 19.4 65 18.3 93 93 NNE 6 9 29.88 1012 10 16 0.00 0.00
4:53 am 04:53 Clear 67 19.4 65 18.3 93 93 NE 6 9 29.89 1012 10 16 0.00 0.00
5:53 am 05:53 Clear 66 18.9 64 17.8 93 93 NE 7 11 29.90 1013 10 16 0.00 0.00
6:53 am 06:53 Sunny 66 18.9 64 17.8 93 93 ENE 8 13 29.92 1013 9 14 0.00 0.00
7:53 am 07:53 Sunny 67 19.4 65 18.3 93 93 ENE 7 11 29.92 1013 9 14 0.00 0.00
8:53 am 08:53 Sunny 70 21.1 64 17.8 82 82 ENE 12 19 29.95 1014 10 16 0.00 0.00
9:53 am 09:53 Sunny 73 22.8 63 17.2 71 71 ENE 14 22 29.97 1015 10 16 0.00 0.00
10:53 am 10:53 Sunny 76 24.4 63 17.2 64 64 E 12 19 29.96 1015 10 16 0.00 0.00
11:53 am 11:53 Sunny 79 26.1 63 17.2 58 58 E 12 19 29.94 1014 10 16 0.00 0.00
12:53 pm 12:53 Partly Cloudy 80 26.7 65 18.3 60 60 ESE 9 15 29.94 1014 10 16 0.00 0.00
1:53 pm 13:53 Sunny 84 28.9 69 20.6 61 61 ESE 8 13 29.92 1013 10 16 0.00 0.00
2:53 pm 14:53 Sunny 84 28.9 71 21.7 65 65 NE 14 22 29.93 1013 10 16 0.00 0.00
3:53 pm 15:53 Sunny 82 27.8 70 21.1 67 67 ENE 10 17 29.92 1013 10 16 0.00 0.00
4:53 pm 16:53 Sunny 81 27.2 70 21.1 69 69 ENE 12 19 29.91 1013 10 16 0.00 0.00
5:53 pm 17:53 Sunny 79 26.1 69 20.6 72 72 E 12 19 29.91 1013 10 16 0.00 0.00
6:53 pm 18:53 Sunny 79 26.1 68 20 69 69 E 9 15 29.90 1013 10 16 0.00 0.00
7:53 pm 19:53 Sunny 78 25.6 66 18.9 67 67 E 8 13 29.89 1012 10 16 0.00 0.00
8:53 pm 20:53 Clear 74 23.3 67 19.4 79 79 E 7 11 29.90 1013 10 16 0.00 0.00
9:53 pm 21:53 Clear 73 22.8 68 20 84 84 E 8 13 29.91 1013 10 16 0.00 0.00
10:53 pm 22:53 Clear 72 22.2 67 19.4 84 84 undefined N/A 29.92 1013 10 16 0.00 0.00
11:53 pm 23:53 Clear 71 21.7 67 19.4 87 87 E 8 13 29.92 1013 10 16 0.00 0.00

Powered by Vaisala Xweather